Temp
76 77 77 76 76 76 76 76 76 77 76 76 75 76 76 77 77 78 78 78 77 77 77 77 77 77 78 76 76 75 75 74 75 74 74 75 74 76 78 76 76 75
75 77 78 77 76 77 76 77 77 77 76 76 77 76 76 77 77 78 78 77 77 77 77 77 77 77 77 76 75 75 75 75 75 78 76 76 75 74 76 76 75 75
75 76 77 76 77 76 78 77 77 77 77 78 78 77 77 78 78 77 78 78 77 78 77 77 77 77 77 76 76 76 77 74 75 75 75 75 74 75 74 75 74 76
75 76 77 78 78 77 78 77 76 76 77 77 77 78 79 80 79 78 77 79 77 78 78 77 77 77 77 77 76 75 76 75 76 74 75 74 75 74 75 74 75 75
76 76 77 78 78 78 78 77 78 77 77 78 78 77 78 77 77 78 77 77 77 78 77 77 77 77 77 76 76 75 76 75 75 74 74 74 74 74 76 75 74 74
76 76 77 77 77 77 77 78 78 78 78 78 78 78 78 78 78 78 78 78 78 78 78 78 77 78 77 77 76 76 76 76 76 74 74 74 75 74 77 76 74 74
77 76 77 78 78 78 78 78 78 79 79 79 78 78 78 78 78 78 78 78 78 78 78 78 77 77 77 77 76 76 75 76 75 74 75 75 74 75 75 75 74 74
78 78 78 78 78 78 78 78 78 78 78 78 78 78 78 79 78 79 78 78 79 78 78 78 77 77 78 77 76 76 76 77 76 75 74 74 74 74 75 76 75 73
79 78 78 78 78 79 79 80 79 79 79 79 79 79 79 79 79 79 78 78 78 78 77 78 77 78 78 77 77 76 76 77 78 76 75 75 75 75 75 75 74 74
78 79 79 79 79 79 79 80 81 80 80 79 80 80 79 79 79 79 78 77 78 77 77 77 77 78 78 78 77 77 77 76 76 76 76 76 76 76 76 75 75 74
79 80 79 79 79 80 80 81 81 81 80 80 80 80 80 79 78 78 77 77 78 78 77 77 78 78 77 78 78 78 78 78 77 76 76 76 76 76 78 76 75 75
79 79 79 80 80 80 80 81 82 81 81 81 81 80 80 80 79 79 79 77 77 78 78 78 77 77 77 78 78 78 78 78 78 77 77 77 77 77 77 77 77 76
78 79 79 80 80 81 81 81 81 82 82 81 81 81 81 80 80 79 79 79 78 78 78 78 78 77 77 77 78 78 78 77 78 77 77 77 77 77 78 77 77 77
77 78 79 79 80 79 80 81 82 82 82 82 81 81 81 81 81 80 80 79 79 79 79 79 78 78 77 77 77 78 78 77 77 77 77 77 77 77 78 78 78 78
75 75 77 78 79 78 78 79 80 81 81 81 81 81 82 82 82 82 80 79 79 79 79 79 79 78 78 77 77 77 77 77 77 77 77 76 77 77 78 77 78 79
73 74 75 75 76 77 77 78 79 79 81 80 80 81 81 81 80 81 81 80 79 78 78 79 79 79 80 80 80 78 76 78 78 76 76 76 76 76 77 77 78 79
71 71 72 73 75 75 76 76 77 78 77 78 79 80 79 79 80 79 80 80 80 79 78 78 79 79 78 72 73 77 79 76 76 76 76 76 76 76 76 77 78 78
71 71 70 70 71 71 71 70 71 72 74 76 78 79 78 79 79 78 78 79 79 78 78 78 78 79 72 70 71 72 78 77 76 76 77 76 76 76 77 77 77 78
70 70 70 70 70 69 70 71 70 70 70 70 71 73 75 76 76 77 76 77 78 77 77 77 77 74 70 69 69 69 71 78 76 77 76 77 76 76 76 76 76 76
70 70 70 70 70 70 69 69 70 69 69 71 71 71 70 71 72 72 72 72 74 75 76 77 76 74 68 67 68 68 69 73 76 77 76 77 77 77 78 77 76 76
70 70 70 70 70 71 70 70 69 69 69 70 69 69 70 69 70 70 71 72 72 72 72 74 77 70 66 66 65 66 67 72 73 76 76 76 76 77 77 78 77 77
70 69 70 70 70 70 70 69 69 68 69 69 70 68 69 70 70 71 70 71 71 71 72 71 71 61 62 63 64 64 67 72 72 72 73 75 76 77 77 77 77 76
69 69 69 69 69 69 69 69 69 68 69 70 69 69 69 69 70 71 71 71 72 72 71 70 71 64 60 60 60 60 64 69 71 73 73 74 76 76 76 75 74 74
69 69 68 69 68 68 68 68 69 70 70 72 70 70 69 70 70 70 71 71 72 72 72 71 70 65 60 59 58 58 64 69 71 72 73 74 75 75 74 74 75 79
69 69 68 68 68 68 68 68 69 69 70 70 70 70 70 70 71 70 70 71 72 72 75 74 70 66 58 57 57 57 62 68 70 71 72 72 73 72 73 73 74 79
68 69 69 68 68 68 68 68 69 70 69 69 69 70 70 70 70 70 70 70 71 72 73 71 68 67 63 55 56 57 60 66 71 72 72 72 72 72 72 72 71 72
MSLP
1016.94 1017.06 1017.34 1017.54 1017.70 1017.74 1017.98 1018.26 1018.34 1018.50 1018.62 1018.70 1018.94 1018.94 1018.94 1018.74 1018.70 1018.82 1018.86 1018.94 1019.02 1019.10 1019.18 1019.22 1019.26 1019.34 1019.30 1019.34 1019.34 1019.46 1019.54 1019.66 1019.66 1019.62 1019.66 1019.66 1019.78 1019.78 1019.86 1019.86 1019.82 1019.82
1016.90 1016.98 1017.06 1017.26 1017.50 1017.58 1017.70 1017.74 1017.98 1018.18 1018.38 1018.42 1018.46 1018.50 1018.54 1018.54 1018.58 1018.62 1018.78 1018.90 1018.94 1019.02 1019.02 1019.10 1019.14 1019.18 1019.26 1019.34 1019.38 1019.54 1019.58 1019.58 1019.66 1019.42 1019.66 1019.70 1019.66 1019.70 1019.74 1019.70 1019.74 1019.66
1016.78 1016.98 1017.10 1017.30 1017.42 1017.54 1017.58 1017.62 1017.74 1017.90 1018.06 1018.06 1018.10 1018.26 1018.38 1018.30 1018.46 1018.46 1018.54 1018.70 1018.86 1018.90 1018.98 1019.02 1019.14 1019.14 1019.18 1019.22 1019.34 1019.50 1019.58 1019.58 1019.66 1019.42 1019.54 1019.62 1019.54 1019.62 1019.58 1019.58 1019.62 1019.58
1016.58 1016.70 1016.90 1016.98 1017.06 1017.26 1017.34 1017.58 1017.70 1017.74 1017.78 1018.06 1018.14 1018.06 1018.10 1018.14 1018.22 1018.38 1018.46 1018.50 1018.70 1018.78 1018.78 1018.90 1019.02 1019.06 1019.14 1019.22 1019.34 1019.50 1019.50 1019.50 1019.42 1019.42 1019.54 1019.50 1019.46 1019.46 1019.50 1019.46 1019.54 1019.50
1016.42 1016.58 1016.66 1016.78 1016.82 1016.94 1017.10 1017.38 1017.54 1017.62 1017.74 1017.70 1017.78 1017.86 1018.02 1018.10 1018.22 1018.30 1018.42 1018.50 1018.50 1018.62 1018.70 1018.82 1018.82 1018.94 1019.02 1019.14 1019.26 1019.46 1019.50 1019.58 1019.46 1019.50 1019.62 1019.66 1019.46 1019.50 1019.42 1019.46 1019.58 1019.62
1016.22 1016.30 1016.42 1016.62 1016.74 1016.90 1017.10 1017.18 1017.18 1017.30 1017.42 1017.58 1017.62 1017.58 1017.74 1017.82 1018.02 1018.18 1018.30 1018.42 1018.42 1018.50 1018.62 1018.66 1018.78 1018.78 1018.86 1019.02 1019.14 1019.30 1019.38 1019.50 1019.42 1019.46 1019.62 1019.66 1019.54 1019.42 1019.46 1019.46 1019.58 1019.62
1016.14 1016.26 1016.38 1016.42 1016.62 1016.70 1016.90 1016.94 1016.94 1016.98 1017.10 1017.10 1017.22 1017.50 1017.46 1017.74 1017.86 1017.94 1018.06 1018.14 1018.26 1018.38 1018.46 1018.58 1018.66 1018.74 1018.70 1018.86 1019.02 1019.18 1019.22 1019.26 1019.26 1019.38 1019.54 1019.54 1019.54 1019.54 1019.42 1019.46 1019.50 1019.62
1015.86 1015.98 1016.14 1016.30 1016.50 1016.62 1016.78 1016.78 1016.82 1016.86 1016.86 1016.98 1017.22 1017.18 1017.26 1017.50 1017.62 1017.70 1017.78 1017.90 1018.10 1018.18 1018.26 1018.34 1018.42 1018.50 1018.54 1018.66 1018.90 1019.06 1019.10 1019.06 1019.18 1019.30 1019.42 1019.46 1019.46 1019.62 1019.46 1019.38 1019.38 1019.58
1015.58 1015.86 1016.02 1016.22 1016.42 1016.50 1016.66 1016.66 1016.66 1016.70 1016.70 1016.98 1017.06 1017.10 1017.10 1017.22 1017.34 1017.46 1017.54 1017.70 1017.86 1017.94 1018.06 1018.18 1018.22 1018.30 1018.30 1018.46 1018.66 1018.82 1018.94 1018.94 1018.90 1019.02 1019.22 1019.34 1019.42 1019.38 1019.30 1019.26 1019.46 1019.50
1015.50 1015.62 1015.90 1016.10 1016.30 1016.26 1016.42 1016.46 1016.46 1016.54 1016.58 1016.78 1016.82 1016.90 1017.10 1017.06 1017.06 1017.18 1017.34 1017.54 1017.74 1017.82 1017.90 1017.98 1018.06 1018.10 1018.18 1018.22 1018.38 1018.54 1018.70 1018.78 1018.74 1018.78 1018.86 1018.98 1019.06 1019.10 1019.06 1019.14 1019.22 1019.34
1015.34 1015.50 1015.78 1015.94 1016.02 1016.02 1016.14 1016.18 1016.26 1016.34 1016.42 1016.58 1016.66 1016.82 1016.82 1016.94 1017.02 1016.98 1017.22 1017.42 1017.62 1017.66 1017.74 1017.82 1017.86 1017.90 1018.02 1018.10 1018.14 1018.14 1018.30 1018.42 1018.54 1018.62 1018.66 1018.70 1018.74 1018.78 1018.78 1018.86 1018.90 1019.02
1015.18 1015.30 1015.50 1015.66 1015.74 1015.82 1015.86 1015.90 1015.98 1016.14 1016.26 1016.30 1016.38 1016.62 1016.66 1016.70 1016.86 1016.94 1017.06 1017.22 1017.26 1017.34 1017.42 1017.50 1017.54 1017.66 1017.78 1017.90 1017.94 1017.98 1018.06 1018.14 1018.22 1018.34 1018.38 1018.46 1018.50 1018.50 1018.50 1018.50 1018.62 1018.66
1015.02 1015.06 1015.14 1015.30 1015.42 1015.54 1015.58 1015.66 1015.78 1015.82 1015.98 1016.14 1016.10 1016.26 1016.46 1016.62 1016.66 1016.78 1016.74 1016.86 1016.98 1017.06 1017.22 1017.26 1017.38 1017.46 1017.62 1017.66 1017.70 1017.78 1017.86 1018.02 1018.10 1018.18 1018.22 1018.26 1018.22 1018.18 1018.18 1018.22 1018.26 1018.30
1014.70 1014.78 1014.94 1015.06 1015.14 1015.30 1015.42 1015.46 1015.54 1015.62 1015.70 1015.74 1015.86 1016.10 1016.18 1016.26 1016.46 1016.58 1016.50 1016.54 1016.66 1016.82 1016.86 1016.94 1017.14 1017.30 1017.38 1017.46 1017.50 1017.58 1017.74 1017.90 1017.94 1018.06 1018.14 1018.14 1018.06 1017.98 1017.94 1017.94 1017.94 1017.98
1014.54 1014.66 1014.70 1014.86 1014.98 1015.14 1015.26 1015.38 1015.42 1015.46 1015.50 1015.62 1015.74 1015.86 1015.86 1015.90 1015.98 1016.14 1016.38 1016.58 1016.54 1016.62 1016.74 1016.78 1017.02 1017.14 1017.14 1017.26 1017.42 1017.50 1017.50 1017.66 1017.74 1017.82 1017.90 1018.02 1018.02 1017.94 1017.82 1017.74 1017.74 1017.74
1014.70 1014.70 1014.70 1014.78 1014.98 1015.06 1015.14 1015.14 1015.22 1015.26 1015.38 1015.54 1015.62 1015.62 1015.66 1015.70 1015.86 1015.98 1016.22 1016.42 1016.58 1016.62 1016.62 1016.70 1016.82 1016.78 1016.78 1016.82 1016.90 1017.14 1017.34 1017.42 1017.50 1017.58 1017.66 1017.78 1017.90 1017.94 1017.82 1017.70 1017.62 1017.54
1014.58 1014.82 1015.06 1015.06 1014.86 1014.86 1014.90 1015.02 1015.10 1015.14 1015.26 1015.34 1015.38 1015.42 1015.54 1015.62 1015.74 1016.02 1016.10 1016.18 1016.34 1016.50 1016.62 1016.62 1016.54 1016.46 1016.46 1016.58 1016.74 1016.78 1016.98 1017.22 1017.38 1017.46 1017.46 1017.58 1017.70 1017.78 1017.82 1017.66 1017.46 1017.30
1014.66 1014.82 1014.94 1015.42 1015.74 1015.26 1014.98 1015.10 1015.26 1015.66 1015.78 1015.50 1015.26 1015.30 1015.34 1015.42 1015.66 1015.78 1015.82 1015.86 1015.98 1016.14 1016.30 1016.34 1016.30 1016.14 1016.22 1016.38 1016.50 1016.62 1016.70 1016.86 1017.02 1017.22 1017.30 1017.42 1017.46 1017.50 1017.46 1017.42 1017.38 1017.26
1014.58 1014.98 1015.26 1015.46 1016.30 1016.62 1015.70 1014.74 1014.94 1015.42 1016.14 1016.66 1016.54 1015.94 1015.46 1015.46 1015.54 1015.58 1015.66 1015.66 1015.74 1015.94 1016.02 1015.98 1016.02 1015.86 1015.98 1016.10 1016.26 1016.38 1016.50 1016.58 1016.78 1016.86 1017.06 1017.14 1017.18 1017.22 1017.22 1017.22 1017.18 1017.22
1014.50 1014.82 1015.10 1015.14 1015.34 1015.90 1016.54 1016.06 1014.90 1014.90 1015.46 1016.10 1016.50 1016.14 1016.10 1016.06 1015.86 1015.70 1015.66 1015.74 1015.78 1015.82 1015.82 1015.78 1015.82 1015.70 1015.82 1015.94 1016.06 1016.22 1016.34 1016.46 1016.54 1016.66 1016.74 1016.78 1016.82 1016.86 1016.90 1016.94 1016.94 1017.06
1014.70 1014.82 1014.98 1014.98 1014.90 1015.18 1015.94 1016.66 1016.14 1015.42 1015.66 1015.66 1015.90 1015.94 1015.66 1015.82 1016.26 1016.42 1016.22 1015.90 1015.78 1015.82 1015.98 1016.02 1015.86 1015.78 1015.86 1015.94 1016.06 1016.18 1016.34 1016.38 1016.42 1016.46 1016.54 1016.58 1016.54 1016.54 1016.62 1016.62 1016.58 1016.62
1014.62 1014.66 1014.70 1014.74 1014.90 1015.30 1015.78 1016.22 1016.54 1016.22 1015.58 1015.14 1015.34 1016.18 1016.50 1015.90 1015.66 1015.66 1015.74 1015.98 1016.02 1015.90 1015.86 1015.90 1015.78 1015.98 1016.14 1016.22 1016.30 1016.38 1016.46 1016.46 1016.46 1016.50 1016.50 1016.42 1016.34 1016.26 1016.22 1016.18 1016.18 1016.26
1014.90 1014.90 1014.94 1014.94 1015.02 1015.34 1015.66 1015.90 1016.26 1016.30 1015.66 1015.26 1015.90 1016.34 1016.46 1015.98 1015.62 1015.50 1015.26 1015.26 1015.38 1015.50 1015.62 1015.62 1015.58 1015.70 1015.90 1016.10 1016.22 1016.38 1016.50 1016.50 1016.46 1016.46 1016.46 1016.38 1016.18 1016.02 1015.98 1015.98 1016.02 1016.02
1015.14 1015.18 1015.26 1015.26 1015.26 1015.46 1015.66 1015.78 1015.66 1015.70 1015.66 1015.50 1015.90 1016.10 1016.06 1015.82 1015.50 1015.46 1015.46 1015.54 1015.66 1015.70 1015.58 1015.66 1015.54 1015.58 1015.74 1016.02 1016.30 1016.46 1016.54 1016.46 1016.34 1016.38 1016.34 1016.26 1016.10 1015.90 1015.94 1016.06 1015.94 1015.74
1015.10 1015.06 1015.10 1015.18 1015.26 1015.38 1015.54 1015.58 1015.50 1015.42 1015.38 1015.42 1015.66 1015.74 1015.74 1015.62 1015.50 1015.42 1015.34 1015.26 1015.22 1015.26 1015.22 1015.42 1015.66 1016.02 1016.30 1016.38 1016.34 1016.38 1016.42 1016.38 1016.34 1016.26 1016.30 1016.14 1016.02 1016.06 1015.98 1016.14 1016.18 1015.78
1015.34 1015.34 1015.26 1015.30 1015.30 1015.42 1015.50 1015.50 1015.34 1015.26 1015.30 1015.38 1015.42 1015.46 1015.54 1015.50 1015.46 1015.42 1015.46 1015.34 1015.18 1015.18 1015.30 1015.46 1015.86 1016.10 1016.22 1016.30 1016.34 1016.34 1016.34 1016.30 1016.06 1016.14 1016.14 1016.02 1015.98 1016.18 1016.58 1016.46 1016.22 1016.18
Wind_Speed
7 6 7 7 7 6 7 7 7 7 7 6 7 6 7 6 5 6 6 5 5 5 5 5 4 3 3 3 2 2 2 2 2 2 1 1 0 0 1 1 1 1
7 7 6 6 6 5 6 7 7 7 7 7 7 6 6 5 6 6 6 6 5 5 4 4 4 4 4 3 3 3 3 2 3 1 1 1 2 1 1 0 1 1
7 6 7 8 8 7 8 6 6 7 7 8 6 6 6 5 6 6 6 6 6 6 5 5 4 4 4 4 3 3 3 3 3 3 2 3 2 3 2 0 1 1
7 8 7 7 7 8 7 7 5 6 5 6 7 7 6 5 5 6 6 6 6 6 5 5 5 5 4 4 3 4 3 3 4 2 2 2 2 2 3 1 1 2
8 7 7 6 6 6 6 7 8 7 7 7 6 6 6 5 5 5 6 5 5 5 5 6 5 5 5 5 4 4 3 4 3 2 3 3 3 2 3 1 2 3
6 6 6 7 6 7 7 8 8 8 7 6 7 6 6 6 6 6 5 6 5 5 5 5 5 5 5 5 5 5 4 5 4 3 3 3 4 2 2 2 2 3
8 7 7 6 7 7 7 7 7 7 7 7 5 6 6 6 6 6 6 6 6 6 6 5 5 5 5 5 5 5 5 5 4 3 3 4 3 4 3 3 3 3
8 7 7 6 7 7 7 7 6 6 6 4 6 6 6 7 7 6 5 6 6 6 6 6 6 6 5 5 5 5 5 4 5 4 4 4 3 3 4 3 3 3
8 8 7 7 8 7 7 7 6 6 5 6 6 6 5 6 6 6 6 6 6 6 6 6 6 6 5 5 5 6 6 5 5 5 5 5 4 5 5 3 3 3
9 8 8 8 8 7 7 7 6 5 5 6 7 6 7 6 6 6 5 6 6 6 6 6 6 6 5 6 7 6 6 6 5 5 5 5 5 5 5 4 5 4
9 8 9 8 9 7 8 7 6 6 5 7 7 7 6 6 6 5 6 6 7 7 6 6 7 6 6 6 6 6 6 6 5 5 5 5 6 6 6 5 5 4
9 9 10 10 9 8 8 8 7 6 6 6 7 8 7 6 7 6 6 7 7 7 7 7 6 6 7 7 7 6 6 6 6 6 6 6 5 5 5 5 5 5
10 10 9 9 9 8 7 6 7 7 7 8 7 8 8 7 7 7 7 7 7 7 7 7 7 6 6 7 7 6 7 7 6 6 6 5 5 6 6 5 5 5
9 8 8 8 7 7 7 7 7 7 7 7 7 8 9 8 8 8 8 7 7 7 7 6 6 6 6 6 6 6 6 6 6 6 6 5 6 6 6 6 6 6
6 6 6 7 8 8 8 8 8 7 7 6 6 7 8 8 8 8 8 7 6 6 6 6 6 7 6 6 6 6 6 6 6 6 6 6 5 6 6 6 5 5
1 3 5 6 6 8 8 8 8 7 7 7 7 8 8 7 7 7 7 7 7 6 6 6 6 5 7 11 9 7 7 6 5 6 5 5 6 6 6 5 6 6
4 2 3 3 6 6 6 7 7 7 6 7 8 8 8 7 7 7 7 7 7 7 7 6 6 6 10 11 12 11 6 5 6 5 5 5 6 6 6 6 6 6
4 3 3 4 7 2 2 3 5 6 4 5 8 9 8 7 8 9 8 8 7 7 7 7 7 8 12 11 12 12 9 6 5 5 5 5 6 6 6 6 6 6
6 5 4 4 4 9 2 6 7 8 8 10 11 8 3 5 6 6 7 7 7 8 8 8 7 10 12 12 12 12 12 8 5 5 5 5 6 6 6 6 6 5
6 5 5 5 5 0 8 6 4 8 8 3 1 2 6 4 2 2 2 3 3 5 6 6 6 9 12 13 12 12 11 8 5 6 6 6 6 6 6 6 6 5
4 4 3 3 4 4 2 7 4 5 7 3 1 1 4 4 3 6 4 1 1 0 1 3 3 3 7 10 10 10 9 6 4 4 4 4 5 5 6 7 6 6
3 4 4 4 4 4 4 4 2 3 2 3 1 3 5 0 2 3 1 2 3 2 0 3 3 0 2 3 5 6 6 5 4 4 5 5 6 6 6 6 6 6
2 3 3 4 5 4 3 3 4 7 7 5 5 5 5 5 4 4 4 4 4 3 3 3 3 2 2 2 3 3 3 5 5 5 5 6 7 5 5 5 5 6
2 1 2 2 3 3 4 3 3 5 6 4 6 7 7 6 6 5 3 2 4 5 5 4 3 3 5 2 1 2 5 5 5 5 6 6 6 4 3 3 5 11
2 3 3 4 4 2 2 3 5 6 4 4 4 4 5 3 4 5 5 5 6 5 7 7 1 1 4 5 3 2 3 4 5 5 6 6 5 4 2 1 3 5
4 5 5 3 4 3 1 1 1 1 2 3 4 4 5 5 5 5 6 6 5 4 4 1 1 2 2 1 1 2 4 5 5 6 7 6 5 2 1 1 1 3
Wind_Direction
181 181 181 184 186 184 179 184 192 194 197 194 196 204 204 209 202 197 199 200 204 202 204 208 211 217 224 219 208 197 223 223 239 213 203 154 153 359 2 2 27 17
186 186 185 182 184 185 186 187 187 191 197 196 199 198 204 198 202 194 197 202 203 211 207 205 206 208 212 215 209 210 234 223 253 218 209 222 230 206 252 282 301 290
180 187 188 186 187 188 189 194 187 191 192 199 198 195 196 199 197 197 200 198 199 206 204 202 203 207 206 210 209 217 219 230 245 253 227 242 243 246 268 229 314 315
188 191 193 194 189 188 188 186 192 193 191 188 199 198 194 198 194 196 200 203 200 205 204 197 199 199 200 204 196 215 224 232 239 243 252 283 262 234 277 273 299 314
190 195 199 196 195 192 186 190 192 191 191 196 193 194 195 198 196 198 199 205 201 205 198 203 199 196 194 199 197 210 220 231 246 228 235 257 265 248 263 270 297 313
195 196 197 197 197 191 194 197 197 191 195 192 199 193 200 197 199 201 198 202 205 203 201 200 200 201 191 195 194 209 217 221 233 210 231 244 263 258 270 259 278 293
196 194 200 199 200 199 199 201 199 196 196 200 185 203 197 199 203 205 201 202 200 202 201 199 201 203 198 191 192 207 213 216 222 208 221 246 253 279 270 266 260 264
195 194 198 199 203 202 204 204 201 199 198 186 196 207 196 203 204 205 201 200 201 203 202 202 203 206 204 191 200 207 215 208 216 208 210 231 233 261 270 256 252 251
188 191 191 198 204 205 208 209 206 206 194 196 204 206 202 202 203 203 200 200 205 206 204 206 204 207 204 198 207 209 213 216 212 205 207 217 222 237 246 241 243 246
189 189 191 196 203 207 209 211 207 205 200 204 207 203 202 208 203 202 197 200 205 207 205 208 208 209 208 206 208 208 211 217 216 213 212 216 220 229 234 223 227 237
193 190 192 196 203 203 209 209 210 208 203 209 208 210 207 202 206 200 200 200 205 207 207 209 209 207 210 214 214 210 212 215 218 218 221 220 220 225 229 223 225 222
196 197 199 200 203 204 206 208 208 209 206 210 208 211 209 203 201 200 201 206 208 208 206 209 208 206 210 214 214 214 213 218 218 220 223 224 225 227 231 226 225 228
200 201 202 205 207 210 210 208 211 212 207 210 207 210 208 206 205 204 209 208 211 207 209 207 207 206 208 213 216 214 213 214 219 221 226 226 227 226 228 227 226 229
202 200 204 207 209 212 213 214 215 214 212 209 206 211 211 209 206 206 212 210 212 209 212 208 208 209 209 212 214 213 212 217 217 219 223 226 231 231 229 227 224 224
189 195 203 206 210 210 211 215 215 214 210 207 209 214 214 213 212 210 210 212 215 212 212 208 207 213 210 207 210 215 212 217 218 221 223 227 234 239 236 234 234 231
198 207 194 200 209 209 213 215 215 212 209 213 213 213 215 216 213 212 210 212 213 214 213 211 212 211 212 211 206 203 207 214 216 220 222 224 228 235 243 236 235 230
127 75 351 249 210 207 211 208 215 213 215 219 218 211 213 214 211 208 210 211 210 209 211 214 214 212 214 214 215 214 203 207 212 220 219 223 222 221 230 234 237 237
120 101 90 13 329 260 116 66 46 5 313 253 223 216 213 211 209 209 209 206 206 206 209 212 215 219 215 214 211 209 206 200 204 211 215 218 222 224 227 229 235 241
118 113 101 82 358 325 302 129 113 97 50 8 349 336 279 203 214 212 212 209 203 204 210 209 214 216 214 210 207 206 209 207 207 211 216 223 225 228 231 232 235 240
137 134 141 145 137 161 306 311 140 131 124 127 285 43 25 10 14 148 156 200 229 224 219 214 216 217 210 210 210 210 210 208 216 215 220 224 227 228 231 232 230 227
123 137 156 179 159 158 203 287 306 78 80 89 254 268 119 107 51 3 354 15 63 40 316 275 263 284 218 215 215 213 209 209 222 229 230 235 236 234 233 233 228 222
146 147 151 154 140 136 153 228 250 94 118 194 170 44 322 271 160 140 146 314 334 4 163 230 212 133 296 268 249 244 240 240 231 228 231 233 236 231 229 228 226 212
72 105 123 116 100 107 133 195 182 166 198 188 120 150 210 230 222 216 214 213 221 223 217 221 231 174 165 246 267 269 247 243 239 237 241 244 243 238 228 218 204 189
73 86 105 96 88 123 151 187 182 172 195 191 171 185 196 200 201 211 210 216 236 250 242 236 230 169 176 180 240 264 243 243 234 228 238 238 247 239 219 224 212 183
111 124 115 113 127 154 206 196 185 180 185 175 178 204 223 218 230 229 226 219 217 225 234 233 215 81 68 27 346 293 240 242 241 232 235 233 219 207 192 180 262 188
50 50 44 60 106 131 86 305 274 217 193 194 197 194 211 211 220 230 239 243 240 236 236 147 134 157 116 46 27 313 261 252 248 236 236 220 189 145 102 29 81 86